Location: Erp
(42.9417°N, 1.2009°E)
Time: 19:13:18
(UTC+00:00)

SJ-7 - Pass Details

Date: 13 April 2026
Orbit: 491 x 514 km, 97.7° (Epoch: 12 May)

Event Time Altitude Azimuth Distance (km) Brightness Sun altitude
Rises 19:44:28 0° 206° (SSW) 2,611 7.8 -12.7°
Reaches altitude 10° 19:47:13 10° 229° (SW) 1,735 7.2 -13.2°
Maximum altitude 19:49:33 16° 267° (W) 1,413 7.3 -13.6°
Drops below altitude 10° 19:51:54 10° 306° (NW) 1,749 8.3 -14.0°
Sets 19:54:42 0° 329° (NNW) 2,644 8.9 -14.4°
